Lapse_Rate
-1.3 -1.3 -1.8 -2.5 -2.3 -2.0 -1.7 -1.7 -1.5 -1.5 -1.0 -0.6 0.1 0.2 0.4 0.3 0.5 1.2 0.6 1.0 1.2 1.6
-1.6 -1.7 -2.4 -2.7 -2.4 -2.2 -1.7 -0.5 -1.4 -1.1 -0.7 -0.3 0.3 0.5 0.3 0.3 0.6 0.3 0.8 1.0 1.3 1.5
-2.6 -2.5 -2.8 -2.6 -2.2 -1.7 -1.4 -1.1 -1.1 -0.8 -0.5 -0.1 0.4 0.6 0.5 0.4 0.9 1.1 1.0 2.1 1.6 1.7
-2.8 -2.7 -2.6 -2.1 -2.0 -1.6 -1.5 -1.2 -0.7 -0.4 -0.1 0.5 0.7 0.7 0.6 0.7 1.5 1.1 1.0 1.2 2.0 2.5
-2.7 -2.5 -2.2 -2.1 -1.8 -1.5 -1.3 -0.9 -0.7 -0.4 0.2 0.6 0.9 0.7 0.6 0.8 0.9 1.1 1.4 2.0 2.3 2.8
-2.2 -2.1 -2.3 -2.0 -1.6 -1.1 -1.0 -0.9 -0.7 -0.1 0.5 0.7 0.7 0.6 0.9 1.3 1.3 1.6 1.9 2.3 3.0 3.7
-2.0 -2.1 -2.0 -1.7 -1.1 -0.8 -0.8 -0.6 -0.2 0.3 0.6 0.6 0.5 1.1 1.8 2.0 2.1 2.0 2.8 3.3 3.7 4.0
-2.0 -1.9 -1.6 -1.1 -0.8 -0.8 -0.4 -0.1 0.3 0.5 0.6 0.2 1.0 3.2 2.9 3.5 3.3 3.1 3.4 3.5 4.1 5.4
-1.4 -1.1 -0.9 -0.7 -0.5 -0.1 0.2 0.2 0.4 0.5 0.1 0.1 2.3 4.0 5.5 5.8 4.7 4.4 4.3 4.4 5.6 5.4
-0.6 -0.3 -0.2 0.1 0.5 0.5 0.4 0.3 0.3 -0.1 -0.1 0.1 0.3 4.3 5.8 6.9 5.4 4.8 4.6 5.1 5.6 6.4
0.1 0.2 0.4 0.5 0.5 0.5 0.4 0.2 -0.2 0.0 0.2 -0.1 1.4 4.7 6.1 7.0 5.1 5.1 5.2 5.4 5.4 5.6
0.8 0.7 0.7 0.7 0.6 0.3 -0.1 -0.0 0.0 0.1 -0.1 0.2 0.6 4.9 5.9 6.4 5.7 6.0 5.8 6.1 5.8 6.2
1.0 0.9 0.5 0.4 0.3 -0.1 -0.1 0.2 -0.2 0.3 0.9 2.2 1.3 4.1 6.3 8.4 7.6 6.1 7.1 7.2 6.6 8.4
0.6 0.4 -0.1 -0.2 0.1 -0.0 -0.4 -0.5 -0.1 0.7 0.3 0.6 1.9 2.8 6.9 8.9 8.3 7.8 8.2 7.8 7.6 7.5
Wind_Speed
11 8 7 6 5 4 4 4 4 5 6 6 6 5 4 2 2 1 3 4 3 3
9 10 8 8 7 5 5 4 5 6 5 5 5 4 3 2 3 3 2 4 4 3
9 9 9 8 7 7 6 5 6 6 5 4 3 3 3 3 3 3 3 3 4 4
9 9 8 8 6 6 6 6 6 5 4 3 3 3 3 3 3 5 5 5 5 6
10 9 9 7 7 6 6 5 5 5 4 4 3 3 3 4 5 5 6 6 6 7
9 8 7 7 6 6 6 6 5 5 4 3 4 4 4 4 5 6 6 6 6 7
7 7 7 6 6 6 6 6 5 4 3 3 4 4 5 5 5 5 5 6 6 7
7 7 7 6 6 6 6 5 4 4 3 4 4 4 6 5 4 4 6 6 7 7
7 7 6 6 6 6 5 4 4 3 4 5 4 11 13 11 4 4 6 7 8 7
7 7 6 6 6 5 4 3 3 4 5 5 5 12 15 16 4 5 6 8 8 8
7 7 6 6 5 4 2 3 3 3 4 5 5 13 15 16 5 5 8 9 9 8
7 7 6 5 4 2 3 3 2 3 5 5 6 14 17 15 5 6 8 8 7 8
6 6 6 5 4 2 2 2 3 5 4 8 6 13 17 15 5 5 7 6 6 13
6 6 6 4 2 2 3 4 4 5 5 6 7 8 17 18 8 7 8 8 7 7
Wind_Direction
121 126 123 127 127 114 112 114 111 95 83 76 70 62 50 36 338 324 304 302 285 270
117 122 125 116 107 108 113 117 104 91 86 69 60 47 23 3 328 325 300 290 275 258
116 111 113 111 111 111 108 100 94 88 79 62 44 24 11 339 316 318 308 288 294 276
111 108 103 106 111 111 105 100 97 94 81 57 35 5 348 331 300 320 309 305 287 283
110 108 106 107 111 110 108 101 103 88 73 42 11 346 352 331 316 317 312 299 304 294
111 111 111 112 111 109 111 99 83 75 53 24 352 346 329 310 316 311 301 303 301 293
117 116 116 117 115 110 103 95 80 65 47 12 343 331 320 317 306 309 319 308 296 293
118 116 117 115 110 103 95 90 80 57 26 3 345 337 312 294 298 306 300 292 293 287
122 120 117 112 111 104 92 80 63 30 12 3 339 319 323 326 297 286 295 297 290 278
125 117 115 117 109 96 85 67 43 22 6 326 310 322 327 321 303 292 290 287 285 294
121 113 114 107 100 91 73 46 28 349 326 326 324 325 323 321 315 292 277 275 278 283
117 117 114 105 101 86 55 29 349 315 334 331 304 323 330 326 298 278 276 281 274 280
111 114 113 115 95 64 64 359 342 334 324 312 312 322 325 323 305 288 296 288 272 305
104 108 114 98 79 67 28 7 348 321 308 314 313 308 320 325 323 313 314 319 320 308